Voltar ao catálogo

STARLINK-1277

AtivoComunicaçõesVLEO
NORAD 45369·PAYLOAD·🇺🇸 United States

Lançado Mar 18, 2020 de Cape Canaveral Space Force Station

Loading…

Próximas Passagens (próximas 24 horas)

TLE

AtualizadoSource: CelesTrak SupGP

Época: Sep 14, 2026, 20:37 UTC

1 45369C 20019K   26257.85951389  .00059060  00000+0  32229-3 0  2576
2 45369  53.0380 304.3401 0004232  13.6482 271.4774 15.79158618    12

Acompanhe STARLINK-1277 em tempo real com AllMySat

Download on the App Store